FW9446 Weather Reports


Display with metric or nautical units.
time (UTC)temp
F
wind
direction
speed
MPH
gust
MPH
rain 1hr
in
rain 24hr
in
rain mn
in
humidity
%
barometer
mb
20260904022557 77 0 0.0 0.0 0.00 0.00 0.00 95 1017.6
20260904022058 77 0 0.0 0.0 0.00 0.00 0.00 95 1017.4
20260904021601 77 0 0.0 0.0 0.00 0.00 0.00 95 1017.4
20260904021057 77 0 0.0 0.0 0.00 0.00 0.00 95 1017.2
20260904020558 77 0 0.0 0.0 0.00 0.00 0.00 94 1017.3
20260904020106 77 0 0.0 0.0 0.00 0.00 0.00 94 1017.2
20260904015559 78 0 0.0 0.0 0.00 0.00 0.00 94 1017.1
20260904015057 78 0 0.0 0.0 0.00 0.00 0.00 94 1017.1
20260904014607 78 0 0.0 0.0 0.00 0.00 0.00 94 1017.1
20260904014058 78 0 0.0 0.0 0.00 0.00 0.00 94 1017.0
20260904013600 78 0 0.0 0.0 0.00 0.00 0.00 94 1017.0
20260904013102 78 0 0.0 0.0 0.00 0.00 0.00 94 1016.8
20260904012557 78 0 0.0 0.0 0.00 0.00 0.00 94 1016.8
20260904012059 78 0 0.0 0.0 0.00 0.00 0.00 94 1016.7
20260904011600 78 0 0.0 0.0 0.00 0.00 0.00 94 1016.7
20260904011058 79 0 0.0 0.0 0.00 0.00 0.00 93 1016.7
20260904010557 79 0 0.0 0.0 0.00 0.00 0.00 93 1016.6
20260904010108 79 0 0.0 0.0 0.00 0.00 0.00 93 1016.4
20260904005558 79 0 0.0 0.0 0.00 0.00 0.00 93 1016.5
20260904005100 79 0 0.0 0.0 0.00 0.00 0.00 93 1016.4
20260904004604 80 0 0.0 0.0 0.00 0.00 0.00 92 1016.4
20260904004058 80 0 0.0 0.0 0.00 0.00 0.00 92 1016.3
20260904003557 80 0 0.0 0.0 0.00 0.00 0.00 92 1016.3
20260904003106 80 0 0.0 0.0 0.00 0.00 0.00 92 1016.2
20260904002557 81 0 0.0 0.0 0.00 0.00 0.00 92 1016.1
20260904002100 81 0 0.0 0.0 0.00 0.00 0.00 92 1016.1
20260904001605 81 0 0.0 0.0 0.00 0.00 0.00 92 1016.0
20260904001057 81 0 0.0 0.0 0.00 0.00 0.00 92 1016.0
20260904000558 82 0 0.0 0.0 0.00 0.00 0.00 91 1016.0
20260904000136 82 0 0.0 0.0 0.00 0.00 0.00 91 1015.9
20260903235559 82 0 0.0 0.0 0.00 0.00 0.00 91 1015.8
20260903235101 82 0 0.0 0.0 0.00 0.00 0.00 91 1015.8
20260903234604 83 0 0.0 0.0 0.00 0.00 0.00 90 1015.7
20260903234058 83 0 0.0 0.0 0.00 0.00 0.00 90 1015.8
20260903233558 83 0 0.0 0.0 0.00 0.00 0.00 89 1015.8
20260903233103 83 0 0.0 0.0 0.00 0.00 0.00 89 1015.7
20260903232557 84 0 0.0 0.0 0.00 0.00 0.00 88 1015.7
20260903232057 84 0 0.0 0.0 0.00 0.00 0.00 88 1015.6
20260903231610 84 0 0.0 0.0 0.00 0.00 0.00 88 1015.6
20260903231057 84 0 0.0 0.0 0.00 0.00 0.00 88 1015.6
20260903230558 84 0 0.0 0.0 0.00 0.00 0.00 88 1015.7
20260903230114 84 0 0.0 0.0 0.00 0.00 0.00 87 1015.6
20260903225558 85 0 0.0 0.0 0.00 0.00 0.00 87 1015.6
20260903225057 85 0 0.0 0.0 0.00 0.00 0.00 86 1015.6
20260903224610 85 0 0.0 0.0 0.00 0.00 0.00 85 1015.7
20260903224057 86 0 0.0 0.0 0.00 0.00 0.00 85 1015.6
20260903223558 86 0 0.0 0.0 0.00 0.00 0.00 84 1015.7
20260903223109 86 0 0.0 0.0 0.00 0.00 0.00 85 1015.7
20260903222557 86 0 0.0 0.0 0.00 0.00 0.00 84 1015.7
20260903222101 87 0 0.0 0.0 0.00 0.00 0.00 84 1015.6
20260903221604 87 0 0.0 0.0 0.00 0.00 0.00 83 1015.8
20260903221057 87 0 0.0 0.0 0.00 0.00 0.00 84 1015.6
20260903220557 87 0 0.0 0.0 0.00 0.00 0.00 83 1015.7
20260903220120 87 0 0.0 0.0 0.00 0.00 0.00 82 1015.8
20260903215603 88 0 0.0 0.0 0.00 0.00 0.00 80 1015.7
20260903215058 89 0 0.0 0.0 0.00 0.00 0.00 78 1015.7
20260903214611 90 0 0.0 0.0 0.00 0.00 0.00 77 1015.7
20260903214057 90 0 0.0 0.0 0.00 0.00 0.00 77 1015.7
20260903213603 90 0 0.0 0.0 0.00 0.00 0.00 77 1015.7
20260903213107 90 0 0.0 0.0 0.00 0.00 0.00 77 1015.8
20260903212557 90 0 0.0 0.0 0.00 0.00 0.00 76 1015.8
20260903212058 91 0 0.0 0.0 0.00 0.00 0.00 74 1015.8
20260903211621 92 0 0.0 0.0 0.00 0.00 0.00 72 1015.8
20260903211101 92 0 0.0 0.0 0.00 0.00 0.00 72 1015.9
20260903210601 93 0 0.0 0.0 0.00 0.00 0.00 72 1016.2
20260903210111 93 0 0.0 0.0 0.00 0.00 0.00 72 1016.1
20260903205557 94 0 0.0 0.0 0.00 0.00 0.00 70 1016.0
20260903205057 94 0 0.0 0.0 0.00 0.00 0.00 71 1016.1
20260903204607 94 0 0.0 0.0 0.00 0.00 0.00 66 1016.2
20260903204058 94 0 0.0 0.0 0.00 0.00 0.00 68 1016.2
20260903203557 94 0 0.0 0.0 0.00 0.00 0.00 68 1016.2
20260903203105 94 0 0.0 0.0 0.00 0.00 0.00 70 1016.1
20260903202558 93 0 0.0 0.0 0.00 0.00 0.00 73 1016.3
20260903202057 92 0 0.0 0.0 0.00 0.00 0.00 68 1016.2
20260903201606 92 0 0.0 0.0 0.00 0.00 0.00 75 1016.2
20260903201056 91 0 0.0 0.0 0.00 0.00 0.00 75 1016.3
20260903200556 91 0 0.0 0.0 0.00 0.00 0.00 73 1016.4
20260903200104 92 0 0.0 0.0 0.00 0.00 0.00 71 1016.4
20260903195600 93 0 0.0 0.0 0.00 0.00 0.00 69 1016.6
20260903195100 93 0 0.0 0.0 0.00 0.00 0.00 68 1016.7
20260903194601 94 0 0.0 0.0 0.00 0.00 0.00 65 1016.7
20260903194057 96 0 0.0 0.0 0.00 0.00 0.00 61 1016.7
20260903193600 97 0 0.0 0.0 0.00 0.00 0.00 61 1016.7
20260903193107 97 0 0.0 0.0 0.00 0.00 0.00 62 1016.7
20260903192557 97 0 0.0 0.0 0.00 0.00 0.00 57 1016.8
20260903192057 96 0 0.0 0.0 0.00 0.00 0.00 54 1017.0
20260903191602 96 0 0.0 0.0 0.00 0.00 0.00 58 1017.0
20260903191057 97 0 0.0 0.0 0.00 0.00 0.00 56 1017.0
20260903190558 96 0 0.0 0.0 0.00 0.00 0.00 56 1017.1
20260903185557 96 0 0.0 0.0 0.00 0.00 0.00 58 1017.2
20260903185057 96 0 0.0 0.0 0.00 0.00 0.00 60 1017.3
20260903184606 96 0 0.0 0.0 0.00 0.00 0.00 65 1017.4
20260903184057 96 0 0.0 0.0 0.00 0.00 0.00 59 1017.4
20260903183600 96 0 0.0 0.0 0.00 0.00 0.00 56 1017.5
20260903183102 96 0 0.0 0.0 0.00 0.00 0.00 59 1017.4
20260903182558 95 0 0.0 0.0 0.00 0.00 0.00 60 1017.6
20260903182057 95 0 0.0 0.0 0.00 0.00 0.00 59 1017.7
20260903181607 95 0 0.0 0.0 0.00 0.00 0.00 57 1017.8
20260903181057 95 0 0.0 0.0 0.00 0.00 0.00 58 1017.9
20260903180557 95 0 0.0 0.0 0.00 0.00 0.00 61 1018.0
20260903180115 95 0 0.0 0.0 0.00 0.00 0.00 60 1018.0
20260903175556 94 0 0.0 0.0 0.00 0.00 0.00 61 1018.0
20260903175057 94 0 0.0 0.0 0.00 0.00 0.00 68 1018.1
20260903174613 94 0 0.0 0.0 0.00 0.00 0.00 59 1018.1
20260903174059 94 0 0.0 0.0 0.00 0.00 0.00 66 1018.1
20260903173557 94 0 0.0 0.0 0.00 0.00 0.00 63 1018.1
20260903173117 93 0 0.0 0.0 0.00 0.00 0.00 63 1018.3
20260903172557 93 0 0.0 0.0 0.00 0.00 0.00 61 1018.3
20260903172057 94 0 0.0 0.0 0.00 0.00 0.00 69 1018.3
20260903171603 94 0 0.0 0.0 0.00 0.00 0.00 67 1018.4
20260903171058 93 0 0.0 0.0 0.00 0.00 0.00 64 1018.5
20260903170558 93 0 0.0 0.0 0.00 0.00 0.00 65 1018.5
20260903170113 93 0 0.0 0.0 0.00 0.00 0.00 71 1018.6
20260903165556 93 0 0.0 0.0 0.00 0.00 0.00 66 1018.7
20260903165056 92 0 0.0 0.0 0.00 0.00 0.00 68 1018.8
20260903164604 92 0 0.0 0.0 0.00 0.00 0.00 69 1018.8
20260903164057 92 0 0.0 0.0 0.00 0.00 0.00 70 1018.9
20260903163557 91 0 0.0 0.0 0.00 0.00 0.00 70 1018.9
20260903163108 91 0 0.0 0.0 0.00 0.00 0.00 74 1018.9
20260903162557 91 0 0.0 0.0 0.00 0.00 0.00 74 1019.0
20260903162057 90 0 0.0 0.0 0.00 0.00 0.00 74 1019.0
20260903161605 90 0 0.0 0.0 0.00 0.00 0.00 72 1019.0
20260903161057 90 0 0.0 0.0 0.00 0.00 0.00 76 1019.0
20260903160557 90 0 0.0 0.0 0.00 0.00 0.00 77 1019.0
20260903160105 89 0 0.0 0.0 0.00 0.00 0.00 76 1019.1
20260903155557 89 0 0.0 0.0 0.00 0.00 0.00 75 1019.2
20260903155057 88 0 0.0 0.0 0.00 0.00 0.00 77 1019.2
20260903154610 88 0 0.0 0.0 0.00 0.00 0.00 78 1019.1
20260903154057 88 0 0.0 0.0 0.00 0.00 0.00 80 1019.1
20260903153559 87 0 0.0 0.0 0.00 0.00 0.00 79 1019.2
20260903153103 87 0 0.0 0.0 0.00 0.00 0.00 79 1019.2
20260903152600 86 0 0.0 0.0 0.00 0.00 0.00 80 1019.1
20260903152057 86 0 0.0 0.0 0.00 0.00 0.00 83 1019.2
20260903151602 85 0 0.0 0.0 0.00 0.00 0.00 82 1019.2
20260903151057 84 0 0.0 0.0 0.00 0.00 0.00 84 1019.2
20260903150600 83 0 0.0 0.0 0.00 0.00 0.00 84 1019.1
20260903150115 83 0 0.0 0.0 0.00 0.00 0.00 84 1019.2
20260903145557 82 0 0.0 0.0 0.00 0.00 0.00 85 1019.1
20260903145057 81 0 0.0 0.0 0.00 0.00 0.00 89 1019.1
20260903144607 80 0 0.0 0.0 0.00 0.00 0.00 89 1019.1
20260903144102 80 0 0.0 0.0 0.00 0.00 0.00 92 1019.2
20260903143600 80 0 0.0 0.0 0.00 0.00 0.00 93 1019.1
20260903143105 79 0 0.0 0.0 0.00 0.00 0.00 92 1019.2
20260903142601 79 0 0.0 0.0 0.00 0.00 0.00 93 1019.1
20260903142101 78 0 0.0 0.0 0.00 0.00 0.00 95 1019.2
20260903141602 78 0 0.0 0.0 0.00 0.00 0.00 95 1019.2
20260903141100 77 0 0.0 0.0 0.00 0.00 0.00 96 1019.1
20260903140557 77 0 0.0 0.0 0.00 0.00 0.00 97 1019.2
20260903140104 76 0 0.0 0.0 0.00 0.00 0.00 98 1019.2
20260903135602 76 0 0.0 0.0 0.00 0.00 0.00 99 1019.3
20260903135100 75 0 0.0 0.0 0.00 0.00 0.00 99 1019.2
20260903134606 75 0 0.0 0.0 0.00 0.00 0.00 99 1019.2
20260903134105 75 0 0.0 0.0 0.00 0.00 0.00 99 1019.2
20260903133600 74 0 0.0 0.0 0.00 0.00 0.00 99 1019.1
20260903133109 74 0 0.0 0.0 0.00 0.00 0.00 99 1019.1
20260903132558 74 0 0.0 0.0 0.00 0.00 0.00 100 1019.1
20260903132103 74 0 0.0 0.0 0.00 0.00 0.00 99 1019.2
20260903131609 74 0 0.0 0.0 0.00 0.00 0.00 100 1019.1
20260903131101 73 0 0.0 0.0 0.00 0.00 0.00 99 1019.2
20260903130600 73 0 0.0 0.0 0.00 0.00 0.00 100 1019.2
20260903130117 73 0 0.0 0.0 0.00 0.00 0.00 99 1019.1
20260903125600 72 0 0.0 0.0 0.00 0.00 0.00 99 1019.2
20260903125101 72 0 0.0 0.0 0.00 0.00 0.00 99 1019.3
20260903124620 72 0 0.0 0.0 0.00 0.00 0.00 99 1019.2
20260903124057 72 0 0.0 0.0 0.00 0.00 0.00 99 1019.4
20260903123557 72 0 0.0 0.0 0.00 0.00 0.00 99 1019.4
20260903123107 71 0 0.0 0.0 0.00 0.00 0.00 99 1019.4
20260903122602 71 0 0.0 0.0 0.00 0.00 0.00 99 1019.4
20260903122101 71 0 0.0 0.0 0.00 0.00 0.00 99 1019.4
20260903121610 71 0 0.0 0.0 0.00 0.00 0.00 99 1019.4
20260903121100 71 0 0.0 0.0 0.00 0.00 0.00 99 1019.3
20260903120604 71 0 0.0 0.0 0.00 0.00 0.00 99 1019.3
20260903120106 71 0 0.0 0.0 0.00 0.00 0.00 99 1019.2
20260903115557 71 0 0.0 0.0 0.00 0.00 0.00 99 1019.1
20260903115100 71 0 0.0 0.0 0.00 0.00 0.00 99 1019.1
20260903114608 71 0 0.0 0.0 0.00 0.00 0.00 99 1019.2
20260903114056 71 0 0.0 0.0 0.00 0.00 0.00 99 1019.1
20260903113557 71 0 0.0 0.0 0.00 0.00 0.00 99 1019.0
20260903113104 71 0 0.0 0.0 0.00 0.00 0.00 98 1018.8
20260903112602 71 0 0.0 0.0 0.00 0.00 0.00 99 1018.8
20260903112057 71 0 0.0 0.0 0.00 0.00 0.00 99 1018.6
20260903111625 71 0 0.0 0.0 0.00 0.00 0.00 98 1018.6
20260903111059 71 0 0.0 0.0 0.00 0.00 0.00 99 1018.7
20260903110557 71 0 0.0 0.0 0.00 0.00 0.00 99 1018.7
20260903110114 71 0 0.0 0.0 0.00 0.00 0.00 99 1018.6
20260903105558 71 0 0.0 0.0 0.00 0.00 0.00 99 1018.5
20260903105057 71 0 0.0 0.0 0.00 0.00 0.00 98 1018.5
20260903104633 71 0 0.0 0.0 0.00 0.00 0.00 98 1018.4
20260903104057 71 0 0.0 0.0 0.00 0.00 0.00 98 1018.5
20260903103559 71 0 0.0 0.0 0.00 0.00 0.00 98 1018.4
20260903103107 71 0 0.0 0.0 0.00 0.00 0.00 98 1018.4
20260903102559 71 0 0.0 0.0 0.00 0.00 0.00 98 1018.4
20260903102056 71 0 0.0 0.0 0.00 0.00 0.00 98 1018.3
20260903101607 71 0 0.0 0.0 0.00 0.00 0.00 98 1018.3
20260903101057 71 0 0.0 0.0 0.00 0.00 0.00 98 1018.3
20260903100557 71 0 0.0 0.0 0.00 0.00 0.00 98 1018.3
20260903100122 71 0 0.0 0.0 0.00 0.00 0.00 98 1018.2
20260903095557 71 0 0.0 0.0 0.00 0.00 0.00 98 1018.3
20260903095057 71 0 0.0 0.0 0.00 0.00 0.00 98 1018.3
20260903094619 71 0 0.0 0.0 0.00 0.00 0.00 98 1018.3
20260903094057 71 0 0.0 0.0 0.00 0.00 0.00 98 1018.3
20260903093558 71 0 0.0 0.0 0.00 0.00 0.00 98 1018.2
20260903093104 71 0 0.0 0.0 0.00 0.00 0.00 98 1018.2
20260903092556 72 0 0.0 0.0 0.00 0.00 0.00 98 1018.2
20260903092057 72 0 0.0 0.0 0.00 0.00 0.00 98 1018.3
20260903091612 72 0 0.0 0.0 0.00 0.00 0.00 98 1018.2
20260903091059 72 0 0.0 0.0 0.00 0.00 0.00 98 1018.1
20260903090556 72 0 0.0 0.0 0.00 0.00 0.00 98 1018.2
20260903090109 72 0 0.0 0.0 0.00 0.00 0.00 98 1018.2
20260903085557 72 0 0.0 0.0 0.00 0.00 0.00 98 1018.2
20260903085100 72 0 0.0 0.0 0.00 0.00 0.00 98 1018.3
20260903084624 72 0 0.0 0.0 0.00 0.00 0.00 98 1018.2
20260903084057 72 0 0.0 0.0 0.00 0.00 0.00 98 1018.2
20260903083558 72 0 0.0 0.0 0.00 0.00 0.00 98 1018.2
20260903083105 72 0 0.0 0.0 0.00 0.00 0.00 98 1018.2
20260903082557 72 0 0.0 0.0 0.00 0.00 0.00 98 1018.1
20260903082056 72 0 0.0 0.0 0.00 0.00 0.00 98 1018.1
20260903081603 72 0 0.0 0.0 0.00 0.00 0.00 98 1018.0
20260903081058 72 0 0.0 0.0 0.00 0.00 0.00 98 1018.1
20260903080559 72 0 0.0 0.0 0.00 0.00 0.00 98 1018.1
20260903080109 72 0 0.0 0.0 0.00 0.00 0.00 98 1018.1
20260903075558 72 0 0.0 0.0 0.00 0.00 0.00 98 1018.0
20260903075056 72 0 0.0 0.0 0.00 0.00 0.00 98 1018.1
20260903074605 72 0 0.0 0.0 0.00 0.00 0.00 98 1018.0
20260903074057 73 0 0.0 0.0 0.00 0.00 0.00 98 1018.1
20260903073557 73 0 0.0 0.0 0.00 0.00 0.00 98 1018.1
20260903073111 73 0 0.0 0.0 0.00 0.00 0.00 98 1018.0
20260903072600 73 0 0.0 0.0 0.00 0.00 0.00 98 1018.0
20260903072056 73 0 0.0 0.0 0.00 0.00 0.00 98 1018.1
20260903071606 73 0 0.0 0.0 0.00 0.00 0.00 98 1018.0
20260903071056 73 0 0.0 0.0 0.00 0.00 0.00 98 1018.0
20260903070559 73 0 0.0 0.0 0.00 0.00 0.00 98 1017.9
20260903070110 73 0 0.0 0.0 0.00 0.00 0.00 98 1017.9
20260903065557 73 0 0.0 0.0 0.00 0.00 0.00 98 1017.8
20260903065057 73 0 0.0 0.0 0.00 0.00 0.00 97 1017.8
20260903064602 73 0 0.0 0.0 0.00 0.00 0.00 97 1017.9
20260903064057 73 0 0.0 0.0 0.00 0.00 0.00 97 1017.9
20260903063558 73 0 0.0 0.0 0.00 0.00 0.00 97 1017.9
20260903063102 73 0 0.0 0.0 0.00 0.00 0.00 97 1017.9
20260903062557 73 0 0.0 0.0 0.00 0.00 0.00 97 1018.0
20260903062057 73 0 0.0 0.0 0.00 0.00 0.00 97 1018.0
20260903061612 73 0 0.0 0.0 0.00 0.00 0.00 97 1018.0
20260903061056 73 0 0.0 0.0 0.00 0.00 0.00 97 1018.0
20260903060556 73 0 0.0 0.0 0.00 0.00 0.00 97 1018.1
20260903060108 74 0 0.0 0.0 0.00 0.00 0.00 97 1018.0
20260903055556 74 0 0.0 0.0 0.00 0.00 0.00 97 1018.1
20260903055058 74 0 0.0 0.0 0.00 0.00 0.00 97 1018.2
20260903054605 74 0 0.0 0.0 0.00 0.00 0.00 97 1018.2
20260903054057 74 0 0.0 0.0 0.00 0.00 0.00 97 1018.2
20260903053558 74 0 0.0 0.0 0.00 0.00 0.00 97 1018.2
20260903053112 74 0 0.0 0.0 0.00 0.00 0.00 97 1018.2
20260903052611 74 0 0.0 0.0 0.00 0.00 0.00 97 1018.2
20260903052057 74 0 0.0 0.0 0.00 0.00 0.00 97 1018.2
20260903051611 74 0 0.0 0.0 0.00 0.00 0.00 97 1018.0
20260903051058 74 0 0.0 0.0 0.00 0.00 0.00 97 1018.1
20260903050559 74 0 0.0 0.0 0.00 0.00 0.00 97 1018.1
20260903050111 74 0 0.0 0.0 0.00 0.00 0.00 96 1018.1
20260903045559 74 0 0.0 0.0 0.00 0.00 0.00 96 1018.1
20260903045058 74 0 0.0 0.0 0.00 0.00 0.00 96 1018.1
20260903044608 74 0 0.0 0.0 0.00 0.00 0.00 96 1018.1
20260903044058 74 0 0.0 0.0 0.00 0.00 0.00 96 1018.1
20260903043559 75 0 0.0 0.0 0.00 0.00 0.00 97 1018.2
20260903043107 75 0 0.0 0.0 0.00 0.00 0.00 96 1018.0
20260903042559 75 0 0.0 0.0 0.00 0.00 0.00 96 1018.0
20260903042059 75 0 0.0 0.0 0.00 0.00 0.00 96 1018.0
20260903041606 75 0 0.0 0.0 0.00 0.00 0.00 96 1017.9
20260903041058 75 0 0.0 0.0 0.00 0.00 0.00 96 1017.9
20260903040558 75 0 0.0 0.0 0.00 0.00 0.00 96 1017.9
20260903040110 75 0 0.0 0.0 0.00 0.00 0.00 96 1017.9
20260903035602 75 0 0.0 0.0 0.00 0.00 0.00 96 1017.9
20260903035058 75 0 0.0 0.0 0.00 0.00 0.00 96 1018.0
20260903034603 75 0 0.0 0.0 0.00 0.00 0.00 96 1018.0
20260903034059 76 0 0.0 0.0 0.00 0.00 0.00 96 1018.1
20260903033558 76 0 0.0 0.0 0.00 0.00 0.00 96 1018.0
20260903033105 76 0 0.0 0.0 0.00 0.00 0.00 96 1018.0
20260903032601 76 0 0.0 0.0 0.00 0.00 0.00 95 1018.1
20260903032059 76 0 0.0 0.0 0.00 0.00 0.00 96 1018.0
20260903031619 76 0 0.0 0.0 0.00 0.00 0.00 95 1018.1
20260903031058 76 0 0.0 0.0 0.00 0.00 0.00 95 1018.2
20260903030559 76 0 0.0 0.0 0.00 0.00 0.00 95 1018.1
20260903030116 76 0 0.0 0.0 0.00 0.00 0.00 95 1018.2
20260903025558 76 0 0.0 0.0 0.00 0.00 0.00 95 1018.2
20260903025058 76 0 0.0 0.0 0.00 0.00 0.00 95 1018.2
20260903024601 76 0 0.0 0.0 0.00 0.00 0.00 95 1018.3
20260903024058 77 0 0.0 0.0 0.00 0.00 0.00 95 1018.2
20260903023558 77 0 0.0 0.0 0.00 0.00 0.00 95 1018.2
20260903023106 77 0 0.0 0.0 0.00 0.00 0.00 95 1018.0